Location: Brede
(50.9167°N, 0.6000°E)
Time: 03:27:20
(UTC+00:00)

Cosmos 2279 Rocket - Pass Details

Date: 08 August 2020
Orbit: 965 x 978 km, 82.9° (Epoch: 27 September)

Event Time Altitude Azimuth Distance (km) Brightness Sun altitude
Exits shadow 02:08:56 26° 193° (SSW) 1,790 4.8 -17.6°
Maximum altitude 02:12:37 83° 279° (W) 980 3.9 -17.3°
Drops below altitude 10° 02:18:52 10° 9° (N) 2,721 7.3 -16.8°
Sets 02:21:23 0° 10° (N) 3,674 8.2 -16.5°
